When you browse on this site, cookies collect data to enhance your experience and personalize the content and advertising you see.
Visit our Privacy Policy to learn more. By continuing to use the site, you agree to this use of cookies and data.
  • In Czech Republic
  • List of Countries
  • For 7 days
  • Water Temperature
  • Satellite Maps
  • Weather Map
  • Weather Widgets
  • user-avatar
    Login

    Hourly Weather As-Savira

    Today, 22 January, Tuesday

    Time Temperature Precipitation Wind Pressure Humidity
    00:00 +13°C° 0 mm 2 mps 735 mmHg 47%
    01:00 +12°C° 0 mm 2 mps 735 mmHg 50%
    02:00 +12°C° 0 mm 1 mps 735 mmHg 53%
    03:00 +11°C° 0 mm 1 mps 734 mmHg 56%
    04:00 +11°C° 0 mm 1 mps 734 mmHg 59%
    05:00 +11°C° 0 mm 1 mps 734 mmHg 58%
    06:00 +10°C° 0 mm 2 mps 734 mmHg 57%
    07:00 +10°C° 0 mm 2 mps 734 mmHg 56%
    08:00 +11°C° 0 mm 3 mps 734 mmHg 51%
    09:00 +12°C° 0 mm 3 mps 734 mmHg 47%
    10:00 +13°C° 0 mm 3 mps 734 mmHg 43%
    11:00 +14°C° 0 mm 3 mps 734 mmHg 39%
    12:00 +16°C° 0 mm 3 mps 733 mmHg 35%
    13:00 +17°C° 0 mm 4 mps 732 mmHg 31%
    14:00 +17°C° 0 mm 4 mps 732 mmHg 31%
    15:00 +18°C° 0 mm 4 mps 731 mmHg 31%
    16:00 +17°C° 0 mm 5 mps 731 mmHg 31%
    17:00 +15°C° 0 mm 6 mps 731 mmHg 35%
    18:00 +14°C° 0 mm 7 mps 731 mmHg 40%
    19:00 +12°C° 0 mm 9 mps 731 mmHg 45%
    20:00 +11°C° 0.3 mm 8 mps 731 mmHg 52%
    21:00 +10°C° 0.3 mm 7 mps 732 mmHg 59%
    22:00 +9°C° 0.3 mm 7 mps 732 mmHg 66%
    23:00 +9°C° 0.7 mm 6 mps 732 mmHg 67%

    Tomorrow, 23 January, Wednesday

    Time Temperature Precipitation Wind Pressure Humidity
    00:00 +8°C° 0.7 mm 5 mps 732 mmHg 68%
    01:00 +8°C° 0.7 mm 5 mps 732 mmHg 68%
    02:00 +8°C° 0 mm 5 mps 732 mmHg 67%
    03:00 +8°C° 0 mm 5 mps 732 mmHg 65%
    04:00 +8°C° 0 mm 6 mps 732 mmHg 64%
    05:00 +7°C° 0 mm 5 mps 732 mmHg 62%
    06:00 +7°C° 0 mm 5 mps 732 mmHg 61%
    07:00 +7°C° 0 mm 5 mps 732 mmHg 60%
    08:00 +7°C° 0 mm 5 mps 732 mmHg 54%
    09:00 +8°C° 0 mm 6 mps 732 mmHg 47%
    10:00 +9°C° 0 mm 7 mps 732 mmHg 41%
    11:00 +10°C° 0 mm 8 mps 732 mmHg 39%
    12:00 +11°C° 0 mm 9 mps 731 mmHg 37%
    13:00 +12°C° 0 mm 10 mps 731 mmHg 35%
    14:00 +12°C° 0 mm 10 mps 730 mmHg 35%
    15:00 +12°C° 0 mm 10 mps 730 mmHg 34%
    16:00 +13°C° 0 mm 10 mps 729 mmHg 34%
    17:00 +12°C° 0 mm 9 mps 729 mmHg 39%
    18:00 +12°C° 0 mm 8 mps 729 mmHg 43%
    19:00 +11°C° 0 mm 7 mps 730 mmHg 48%
    20:00 +11°C° 0 mm 7 mps 730 mmHg 48%
    21:00 +11°C° 0 mm 6 mps 730 mmHg 48%
    22:00 +10°C° 0 mm 6 mps 730 mmHg 49%
    23:00 +10°C° 0 mm 6 mps 730 mmHg 48%

    Day after tomorrow, 24 January, Thursday

    Time Temperature Precipitation Wind Pressure Humidity
    00:00 +10°C° 0 mm 7 mps 729 mmHg 47%
    01:00 +10°C° 0 mm 8 mps 729 mmHg 46%
    02:00 +10°C° 0 mm 8 mps 729 mmHg 44%
    03:00 +8°C° 0 mm 9 mps 728 mmHg 41%
    04:00 +8°C° 0 mm 9 mps 728 mmHg 39%
    05:00 +8°C° 0 mm 9 mps 727 mmHg 43%
    06:00 +8°C° 0 mm 9 mps 727 mmHg 47%
    07:00 +7°C° 0 mm 9 mps 727 mmHg 51%
    08:00 +8°C° 0 mm 10 mps 727 mmHg 50%
    09:00 +9°C° 0 mm 11 mps 727 mmHg 49%
    10:00 +10°C° 0 mm 12 mps 727 mmHg 48%
    11:00 +12°C° 0 mm 13 mps 727 mmHg 45%
    12:00 +13°C° 0 mm 13 mps 726 mmHg 42%
    13:00 +14°C° 0 mm 14 mps 725 mmHg 39%
    14:00 +14°C° 0.1 mm 14 mps 725 mmHg 42%
    15:00 +13°C° 0.1 mm 14 mps 725 mmHg 46%
    16:00 +13°C° 0.1 mm 14 mps 725 mmHg 49%
    17:00 +12°C° 0.2 mm 12 mps 725 mmHg 44%
    18:00 +11°C° 0.2 mm 11 mps 726 mmHg 38%
    19:00 +11°C° 0.2 mm 10 mps 727 mmHg 33%
    20:00 +9°C° 0 mm 10 mps 727 mmHg 33%
    21:00 +8°C° 0 mm 9 mps 728 mmHg 33%
    22:00 +7°C° 0 mm 9 mps 729 mmHg 32%
    23:00 +7°C° 0 mm 9 mps 729 mmHg 34%

    25 January, Friday

    Time Temperature Precipitation Wind Pressure Humidity
    00:00 +6°C° 0 mm 9 mps 729 mmHg 35%
    01:00 +6°C° 0 mm 9 mps 729 mmHg 36%
    02:00 +6°C° 0.1 mm 9 mps 729 mmHg 38%
    03:00 +5°C° 0.1 mm 9 mps 729 mmHg 39%
    04:00 +5°C° 0.1 mm 9 mps 729 mmHg 40%
    05:00 +5°C° 0.1 mm 9 mps 730 mmHg 41%
    06:00 +5°C° 0.1 mm 8 mps 730 mmHg 41%
    07:00 +5°C° 0.1 mm 8 mps 731 mmHg 42%
    08:00 +5°C° 0 mm 8 mps 732 mmHg 42%
    09:00 +5°C° 0 mm 7 mps 732 mmHg 43%
    10:00 +5°C° 0 mm 7 mps 733 mmHg 44%
    11:00 +6°C° 0 mm 7 mps 733 mmHg 43%
    12:00 +8°C° 0 mm 7 mps 733 mmHg 41%
    13:00 +9°C° 0 mm 7 mps 733 mmHg 40%
    14:00 +10°C° 0 mm 7 mps 733 mmHg 40%
    15:00 +10°C° 0 mm 7 mps 733 mmHg 39%
    16:00 +10°C° 0 mm 7 mps 733 mmHg 38%
    17:00 +10°C° 0 mm 6 mps 733 mmHg 40%
    18:00 +9°C° 0 mm 5 mps 734 mmHg 42%
    19:00 +10°C° 0 mm 4 mps 734 mmHg 43%
    20:00 +8°C° 0 mm 4 mps 735 mmHg 44%
    21:00 +8°C° 0 mm 4 mps 735 mmHg 45%
    22:00 +8°C° 0 mm 3 mps 736 mmHg 46%
    23:00 +7°C° 0 mm 4 mps 736 mmHg 47%

    26 January, Saturday

    Time Temperature Precipitation Wind Pressure Humidity
    00:00 +7°C° 0 mm 4 mps 736 mmHg 48%
    01:00 +6°C° 0 mm 4 mps 736 mmHg 49%
    02:00 +6°C° 0 mm 4 mps 736 mmHg 50%
    03:00 +5°C° 0 mm 4 mps 736 mmHg 51%
    04:00 +5°C° 0 mm 4 mps 736 mmHg 52%
    05:00 +5°C° 0 mm 4 mps 736 mmHg 53%
    06:00 +5°C° 0 mm 4 mps 736 mmHg 54%
    07:00 +4°C° 0 mm 4 mps 737 mmHg 54%
    08:00 +5°C° 0 mm 4 mps 737 mmHg 51%
    09:00 +6°C° 0 mm 5 mps 738 mmHg 47%
    10:00 +7°C° 0 mm 6 mps 738 mmHg 44%
    11:00 +8°C° 0 mm 6 mps 738 mmHg 42%
    12:00 +9°C° 0 mm 7 mps 738 mmHg 39%
    13:00 +10°C° 0 mm 7 mps 738 mmHg 37%
    14:00 +10°C° 0 mm 7 mps 737 mmHg 36%
    15:00 +10°C° 0 mm 7 mps 737 mmHg 34%
    16:00 +11°C° 0 mm 7 mps 737 mmHg 33%
    17:00 +10°C° 0 mm 6 mps 737 mmHg 34%
    18:00 +10°C° 0 mm 5 mps 737 mmHg 35%
    19:00 +10°C° 0 mm 3 mps 737 mmHg 36%
    20:00 +10°C° 0 mm 3 mps 737 mmHg 36%
    21:00 +10°C° 0 mm 3 mps 738 mmHg 37%
    22:00 +9°C° 0 mm 3 mps 738 mmHg 37%
    23:00 +9°C° 0 mm 3 mps 738 mmHg 38%

    27 January, Sunday

    Time Temperature Precipitation Wind Pressure Humidity
    00:00 +8°C° 0 mm 4 mps 737 mmHg 38%
    01:00 +7°C° 0 mm 4 mps 737 mmHg 38%
    02:00 +7°C° 0 mm 4 mps 737 mmHg 39%
    03:00 +7°C° 0 mm 4 mps 736 mmHg 39%
    04:00 +6°C° 0 mm 4 mps 736 mmHg 40%
    05:00 +6°C° 0 mm 4 mps 736 mmHg 40%
    06:00 +6°C° 0 mm 4 mps 735 mmHg 41%
    07:00 +6°C° 0 mm 5 mps 735 mmHg 41%
    08:00 +7°C° 0 mm 5 mps 735 mmHg 38%
    09:00 +8°C° 0 mm 6 mps 735 mmHg 35%
    10:00 +9°C° 0 mm 7 mps 735 mmHg 33%
    11:00 +10°C° 0 mm 7 mps 734 mmHg 29%
    12:00 +11°C° 0 mm 8 mps 734 mmHg 25%
    13:00 +13°C° 0 mm 8 mps 733 mmHg 22%
    14:00 +13°C° 0 mm 8 mps 733 mmHg 21%
    15:00 +13°C° 0 mm 8 mps 732 mmHg 20%
    16:00 +13°C° 0 mm 8 mps 731 mmHg 20%
    17:00 +14°C° 0 mm 7 mps 731 mmHg 21%
    18:00 +13°C° 0 mm 6 mps 731 mmHg 23%
    19:00 +12°C° 0 mm 5 mps 731 mmHg 24%
    20:00 +12°C° 0 mm 5 mps 731 mmHg 25%
    21:00 +10°C° 0 mm 5 mps 732 mmHg 26%
    22:00 +11°C° 0 mm 4 mps 732 mmHg 27%
    23:00 +11°C° 0 mm 4 mps 732 mmHg 30%
    Show more